Theta_e
312 312 311 310 309 308 307 307 304 300 300 300 298 301 303 303 300 297 300 300 301 302 303 304 306 307 308 311 313 313 314 315 312 314 315 316 317 316 316 316 319 317 320 319 320 322 319 317 315 315 315 314 314 313
312 312 311 310 309 308 307 306 305 303 300 301 299 300 303 302 300 296 299 302 301 301 302 302 303 304 306 307 310 311 312 313 311 313 315 313 314 314 317 319 317 321 318 319 319 319 316 314 312 311 312 312 312 312
312 312 311 310 309 308 307 306 305 304 301 301 299 300 302 303 300 296 298 299 300 302 304 305 308 307 306 307 308 311 312 312 312 312 311 312 314 315 320 318 317 315 311 315 314 312 313 311 309 310 311 312 311 311
310 310 310 310 308 308 307 306 305 304 302 301 299 299 301 302 300 297 297 298 300 301 305 308 309 308 308 307 308 309 310 309 309 309 311 312 314 314 316 315 315 311 311 310 311 311 309 307 308 310 311 311 310 309
310 310 309 309 308 308 307 306 305 304 302 300 298 299 301 302 299 298 298 298 299 301 305 305 304 304 308 308 308 308 308 309 308 308 310 311 313 315 314 314 311 310 309 310 309 309 309 310 309 310 310 309 308 307
310 310 310 309 308 307 307 306 305 303 301 300 299 300 301 302 299 297 301 300 299 301 303 305 305 309 308 308 308 309 309 308 307 306 308 311 313 313 313 313 309 309 307 306 306 307 308 310 310 310 310 306 306 306
309 310 310 310 309 308 307 306 304 302 301 300 300 300 301 301 298 298 302 300 301 301 303 306 309 309 309 308 310 311 309 308 307 307 309 311 312 311 312 314 309 307 306 305 306 307 308 309 310 310 307 306 306 304
309 309 308 308 308 307 306 305 304 302 300 300 300 300 299 297 297 297 298 300 300 302 303 306 308 311 310 310 310 313 312 309 309 310 312 313 311 313 315 309 307 304 303 304 305 306 308 310 310 308 306 307 305 303
309 308 308 308 308 307 306 305 303 301 300 299 299 298 297 297 298 299 300 300 300 303 305 305 309 317 310 311 309 312 313 314 312 311 311 310 313 312 308 307 304 302 303 304 306 306 308 309 310 307 307 307 305 303
308 309 307 307 308 306 305 304 302 301 300 299 298 298 301 300 300 301 301 302 302 302 302 306 306 310 309 307 307 307 309 313 314 309 307 311 311 307 305 304 302 302 302 304 305 307 309 312 310 307 306 306 305 302
308 308 307 307 307 306 305 303 301 300 299 298 300 302 301 301 302 304 306 305 303 305 304 306 306 310 308 308 309 309 313 314 316 313 313 315 313 307 305 303 302 301 302 303 306 308 310 311 311 307 306 306 304 302
308 307 307 307 306 305 304 302 300 299 298 299 300 299 301 302 304 307 306 307 308 309 308 309 309 308 308 307 308 311 312 313 316 314 315 315 308 305 304 303 302 301 301 304 305 307 308 309 309 310 306 305 305 302
307 306 306 306 305 305 303 301 299 299 299 298 301 302 303 305 306 305 308 310 310 309 309 308 306 306 306 307 309 310 313 313 311 314 313 310 306 305 304 302 302 301 301 302 304 305 306 307 308 308 306 304 304 302
306 306 306 305 305 303 301 299 299 299 300 302 303 304 305 306 305 307 308 311 310 307 308 307 308 306 308 309 309 311 312 310 313 314 314 308 304 303 302 302 301 301 301 300 301 303 305 306 307 307 308 304 303 303
306 306 305 305 304 302 300 299 299 299 301 303 304 308 305 305 307 308 309 308 304 305 304 305 307 308 309 309 309 309 310 311 312 311 307 304 303 302 301 301 301 301 301 300 299 302 303 304 306 307 307 305 302 303
305 304 304 304 302 300 298 298 297 298 300 301 304 307 307 306 307 308 307 305 304 304 305 306 308 309 310 310 308 311 311 312 310 307 304 302 302 301 302 301 300 300 300 300 300 301 301 302 304 306 305 307 305 302
304 302 303 302 301 299 297 296 296 299 302 303 305 305 306 307 308 306 305 305 304 304 306 307 308 310 309 309 309 308 310 307 305 304 303 302 302 302 302 300 299 299 300 300 300 301 300 298 301 303 305 306 307 303
303 302 302 300 298 296 295 297 300 301 302 303 305 305 305 306 307 306 305 305 304 305 306 307 308 307 309 310 310 307 306 305 304 304 304 302 302 303 302 300 299 299 301 300 300 300 301 298 298 300 301 303 305 306
302 301 300 298 297 297 299 299 300 303 303 303 303 305 305 306 306 306 305 304 305 305 305 305 305 307 311 308 307 306 304 304 305 304 303 303 302 302 302 301 301 301 301 299 299 298 299 300 297 297 299 300 302 305
300 298 297 298 299 300 301 302 301 304 306 305 304 306 306 306 306 305 305 304 304 303 303 303 305 307 308 305 305 304 304 303 304 305 303 302 300 301 301 301 301 300 300 299 299 298 298 298 298 298 297 298 300 302
297 297 298 298 299 300 303 302 303 304 305 305 305 305 306 306 305 305 304 304 304 304 304 304 305 304 303 303 303 303 302 303 303 303 301 300 299 299 299 299 299 298 299 298 298 298 299 298 297 297 298 297 296 300
296 296 295 297 300 301 302 302 304 304 305 306 305 306 306 306 305 305 304 303 304 304 305 305 305 304 304 303 302 301 301 302 301 298 296 297 299 299 299 298 298 297 297 297 297 297 297 297 296 297 297 297 295 296
296 297 298 299 301 302 303 303 305 304 307 307 306 307 306 305 305 304 304 304 306 305 304 304 303 303 303 301 299 299 300 301 300 298 298 298 298 298 298 297 297 296 296 296 296 296 296 296 297 296 296 296 296 294
298 300 301 302 303 305 304 305 305 306 307 307 307 307 306 306 305 305 305 307 307 304 304 304 303 303 301 300 300 299 299 300 298 297 297 297 298 298 297 297 296 294 294 295 295 295 295 295 295 296 296 295 295 295
301 302 303 304 305 304 305 306 307 306 308 307 306 307 308 306 306 305 305 308 306 304 304 304 303 302 302 301 299 298 298 299 299 298 296 296 296 297 296 296 295 293 293 294 293 294 294 294 294 294 295 296 294 295
303 302 304 303 305 306 307 307 307 306 307 307 307 307 306 306 306 305 306 310 306 304 304 304 303 303 302 300 299 298 297 297 298 297 295 294 294 294 295 295 295 292 292 292 292 293 292 293 293 294 294 295 294 294
304 303 303 304 305 306 306 306 305 307 306 306 308 307 306 307 306 309 307 306 305 304 303 303 302 302 301 300 298 297 296 296 296 295 294 293 292 292 292 293 292 290 291 291 291 291 291 292 292 293 293 293 293 293
303 303 305 304 305 306 306 306 306 307 306 306 307 307 306 306 307 305 305 303 303 303 302 302 301 301 299 297 296 296 295 295 294 294 294 293 292 291 291 291 290 290 290 290 290 290 289 290 291 291 291 292 291 291
302 303 304 305 304 305 306 307 306 305 305 306 307 307 304 301 302 303 302 302 302 302 302 301 299 298 297 296 296 296 296 296 297 297 296 296 294 292 290 290 290 290 290 290 289 288 288 289 289 289 290 290 289 289
303 303 304 304 306 307 306 305 306 305 305 303 301 300 300 301 301 301 301 301 301 301 300 299 298 297 297 296 296 295 294 294 295 296 296 294 292 290 289 289 289 289 289 289 289 289 287 288 288 288 287 287 286 286
303 303 304 305 306 305 304 303 303 303 303 302 301 301 300 299 299 299 299 300 300 299 299 298 297 297 297 296 296 295 293 291 289 289 289 290 289 288 288 288 288 288 288 288 288 287 286 286 285 285 284 284 284 283
303 304 305 304 303 301 303 303 303 303 302 301 301 299 299 299 299 299 296 298 299 298 297 297 297 297 296 295 294 292 291 290 289 286 286 286 286 285 286 286 286 287 287 286 286 285 283 283 283 282 281 281 281 281
303 303 303 302 302 302 302 302 302 302 301 302 301 300 299 298 297 296 296 297 298 297 297 296 295 294 293 292 290 288 286 283 282 282 280 280 280 281 283 283 284 285 286 285 284 283 281 281 280 280 279 279 278 278
Wind_Speed
22 22 21 22 22 24 26 29 28 26 22 20 18 14 12 11 7 3 9 7 3 4 13 11 11 10 8 7 8 10 5 2 4 4 3 4 5 5 6 10 2 1 2 2 3 3 5 22 13 9 11 19 22 23
21 21 22 22 21 22 24 30 29 27 22 21 16 13 12 12 6 2 6 4 5 7 8 26 25 21 17 11 6 5 7 6 5 3 3 3 4 5 9 4 5 2 3 2 2 5 17 14 15 16 18 21 22 25
22 23 23 23 21 20 21 27 30 27 21 20 15 14 12 12 6 6 7 10 11 5 9 11 9 16 12 12 8 3 3 6 5 5 4 3 4 5 3 4 6 2 9 4 9 5 15 16 15 18 22 24 27 22
24 23 22 21 20 19 19 23 29 25 19 17 15 16 12 12 8 7 8 10 10 6 4 1 5 3 8 7 8 7 2 2 5 5 4 3 4 4 4 6 3 3 8 11 12 13 18 13 21 22 27 27 23 24
22 21 21 19 19 18 17 19 27 23 18 15 13 14 14 9 6 7 12 14 12 4 4 7 23 19 12 11 8 7 4 2 2 2 1 3 3 4 4 4 2 2 3 2 7 18 16 23 23 24 25 22 24 25
21 21 18 16 17 17 15 17 24 21 16 13 12 13 13 7 5 2 2 6 15 10 3 4 9 2 12 9 10 10 6 3 1 1 3 4 1 2 1 2 1 7 7 8 7 16 22 23 19 25 22 26 24 25
20 19 18 18 17 15 14 16 22 18 14 11 10 10 15 10 8 4 3 2 8 6 2 4 4 5 17 14 11 3 9 3 3 2 3 4 1 1 1 2 10 14 13 15 16 16 21 22 24 20 18 19 23 24
20 18 16 15 16 15 14 17 22 17 11 9 9 6 11 8 7 7 14 6 5 4 3 3 5 5 10 7 6 5 5 5 5 3 2 1 1 4 1 9 13 14 16 14 16 18 18 21 23 16 16 15 24 23
18 17 15 14 13 13 13 18 20 15 10 9 6 10 4 3 4 4 7 12 13 2 2 3 3 0 7 9 4 9 8 5 3 3 1 1 3 2 7 12 14 13 10 16 20 20 20 21 23 17 17 18 23 24
17 16 15 14 13 13 14 21 21 15 15 11 9 4 2 5 5 12 4 5 4 3 3 4 8 6 4 3 3 3 4 4 3 1 1 3 2 3 7 8 9 11 13 15 16 19 20 22 20 18 17 16 20 21
17 17 15 13 12 12 15 25 22 20 16 6 5 2 2 5 9 3 3 4 3 3 4 5 10 7 4 3 3 3 2 2 2 3 2 3 2 5 8 10 9 11 12 14 15 16 19 20 22 17 18 18 17 21
16 16 15 13 12 15 22 29 30 21 11 10 6 4 2 2 3 4 3 3 5 4 6 7 8 6 3 1 2 2 2 3 2 9 3 2 4 8 9 11 12 12 14 16 19 17 19 21 21 20 17 15 15 26
16 15 14 14 16 21 31 33 32 21 17 8 3 3 3 4 4 5 5 4 4 5 6 5 5 5 3 2 1 3 4 1 3 3 2 4 7 8 10 11 13 15 17 18 17 22 25 25 30 27 17 21 22 21
15 13 12 14 20 30 35 37 29 24 4 3 4 4 5 5 5 5 6 5 2 2 6 5 6 3 3 1 1 2 3 2 2 3 3 5 7 8 9 10 11 14 14 15 16 21 21 22 20 27 27 23 24 15
13 12 13 16 29 35 38 35 30 14 4 3 3 4 7 6 5 6 7 9 1 2 1 3 1 3 3 1 1 3 2 2 3 2 2 5 7 7 9 10 12 12 12 12 17 16 19 23 23 21 27 23 24 23
12 8 14 26 37 40 36 32 12 2 2 2 4 4 2 2 6 9 8 4 2 3 2 4 3 4 2 3 3 1 2 1 2 2 2 3 6 6 5 7 9 14 14 11 14 18 20 22 23 20 25 27 25 27
19 5 21 37 39 40 35 11 3 3 3 3 4 6 3 4 6 5 3 3 3 3 5 2 1 2 2 2 2 1 1 1 2 2 1 2 5 6 8 9 13 15 15 15 17 17 17 22 22 22 18 27 30 24
4 21 40 46 45 29 6 3 4 4 5 6 4 4 7 7 8 5 3 3 3 4 2 0 2 3 2 3 3 3 4 4 3 2 4 2 4 6 9 9 11 12 13 15 16 17 16 18 19 18 23 25 24 24
28 46 52 49 30 8 4 4 3 3 7 2 6 5 8 7 4 3 4 3 3 5 1 2 0 2 4 1 5 5 4 2 3 5 3 1 1 5 8 7 8 9 12 15 16 17 17 15 13 19 23 23 21 23
45 51 48 35 18 4 4 4 7 3 3 4 4 6 8 6 4 3 3 4 4 2 2 2 2 5 5 5 4 3 4 2 1 5 3 5 5 6 7 8 10 12 13 14 15 16 16 17 20 20 20 24 22 22
37 32 30 18 2 2 2 4 4 3 2 4 6 7 5 6 6 4 4 3 3 2 3 1 7 6 7 7 7 7 4 6 5 5 4 4 6 8 9 11 12 14 13 15 14 17 17 17 20 21 20 20 26 24
18 23 8 3 1 2 2 3 2 2 3 3 7 7 5 7 6 5 5 4 3 3 1 4 7 6 6 6 5 7 7 6 7 7 3 3 5 5 8 11 12 12 13 15 16 16 18 19 19 21 20 20 22 23
18 9 4 3 2 3 3 7 3 3 3 4 6 4 5 6 5 6 4 3 3 2 4 7 9 8 11 10 8 6 4 2 6 6 4 5 7 8 8 10 13 13 12 15 17 17 18 20 20 20 20 20 21 22
14 5 4 5 5 4 5 5 4 4 4 6 6 4 7 4 5 4 3 4 4 4 5 9 10 7 7 10 6 7 5 6 8 6 6 6 6 7 8 9 13 13 14 15 16 17 19 19 21 21 20 19 22 19
4 4 3 3 5 5 6 5 5 4 4 6 8 3 3 3 3 4 5 5 7 7 8 9 9 8 7 6 7 7 2 1 6 5 5 6 6 6 8 8 13 14 15 15 16 17 19 19 20 21 21 19 22 20
3 5 7 7 5 6 6 6 7 7 5 7 5 4 3 3 4 3 5 6 7 7 8 8 8 8 7 10 6 6 5 4 6 8 7 8 8 8 8 7 8 12 14 15 15 17 18 18 19 20 21 21 22 21
4 4 5 5 4 4 3 3 5 4 6 4 5 5 4 3 3 2 3 4 6 9 12 12 11 9 9 13 12 7 6 5 8 8 7 8 9 9 9 10 10 10 9 13 15 15 17 17 18 19 20 19 21 21
4 4 6 5 3 2 3 3 4 6 5 3 7 6 7 2 2 2 2 2 8 11 11 8 10 12 16 14 10 8 8 7 7 7 8 8 8 10 9 8 8 9 7 10 12 14 17 15 16 17 19 19 20 20
2 1 5 5 3 3 5 5 3 2 2 5 6 3 3 3 3 3 6 5 8 11 12 14 15 16 14 11 8 7 7 7 5 6 3 5 6 9 9 9 9 10 11 11 9 13 16 15 14 15 17 17 19 19
4 5 3 5 4 2 2 1 4 6 8 8 6 9 9 7 6 6 9 8 9 10 13 15 13 12 12 11 10 9 8 9 10 10 6 6 5 6 7 8 9 10 11 12 12 14 16 14 15 16 18 18 20 20
7 5 4 3 2 3 6 5 6 8 7 10 10 10 10 7 13 11 7 6 10 13 14 12 12 11 11 10 9 9 10 9 10 9 7 5 6 6 7 7 8 9 10 11 12 13 16 14 15 16 17 19 20 21
5 5 4 3 2 3 4 3 4 4 5 8 9 9 8 6 4 3 10 6 8 10 10 10 11 11 14 12 12 16 15 13 10 8 8 6 6 6 6 7 7 7 8 10 11 12 14 14 14 16 16 18 19 19
2 3 3 4 2 3 3 3 3 2 2 2 2 2 2 3 3 2 5 8 3 10 11 14 15 15 15 14 12 13 13 12 11 11 9 8 8 8 8 7 7 7 7 8 9 10 11 12 13 14 15 16 17 18
Wind_Direction
291 289 287 281 276 273 270 258 251 253 264 272 275 261 270 289 297 315 282 285 270 278 288 290 301 283 284 278 309 360 311 7 308 302 320 345 323 325 347 341 42 251 315 281 301 282 283 0 355 353 302 311 325 319
290 292 290 285 277 272 271 264 254 250 258 268 267 255 265 279 274 245 279 226 247 256 273 305 285 269 268 287 310 295 345 13 28 328 343 332 327 311 331 304 19 33 16 279 313 301 316 345 333 329 322 319 318 312
289 289 289 287 279 272 268 264 256 248 254 261 258 252 269 246 240 212 266 292 312 275 280 240 254 235 221 232 239 286 31 350 24 351 330 289 282 283 300 320 341 75 30 303 337 310 327 324 325 322 327 316 310 316
284 287 288 285 275 271 267 264 253 248 246 260 255 240 280 231 242 219 241 255 293 276 278 327 105 169 196 200 208 224 252 13 320 312 295 277 269 338 309 317 73 6 311 340 290 295 339 310 318 328 312 311 314 324
275 279 281 279 277 270 265 262 251 244 241 252 252 247 271 221 246 231 250 240 252 263 316 307 310 265 205 185 200 202 218 283 323 290 292 271 312 351 360 332 66 309 314 309 285 314 304 301 308 312 316 326 336 321
273 273 277 280 276 269 261 258 247 239 237 243 249 234 236 213 195 239 266 222 221 223 284 293 341 267 194 181 202 196 177 142 117 348 282 277 3 53 307 304 154 287 346 298 284 295 293 298 322 313 308 334 323 313
270 270 272 273 272 265 255 249 239 229 231 239 245 265 200 206 193 193 268 248 178 219 252 285 285 249 198 197 211 112 163 179 185 208 234 258 97 314 199 263 346 346 334 320 303 314 319 317 314 310 322 327 327 322
271 265 269 269 268 259 244 236 226 218 215 220 219 237 198 187 223 263 259 207 201 247 263 274 268 236 201 231 202 161 187 184 191 240 244 276 228 223 227 349 343 346 329 313 325 318 309 315 312 326 334 347 331 331
271 261 268 268 266 254 235 225 213 201 185 189 187 182 152 201 216 244 199 222 208 285 271 246 264 262 192 240 250 180 183 184 119 196 235 201 228 52 346 341 333 333 318 306 317 319 315 311 319 341 348 349 335 334
268 257 262 261 260 239 218 211 197 174 172 172 147 172 214 208 224 135 155 165 189 206 223 257 271 267 258 352 254 218 193 165 199 152 160 224 95 76 25 358 333 323 320 320 322 318 317 332 340 352 353 359 344 342
266 258 258 256 248 216 201 193 170 158 153 167 179 215 200 163 178 222 198 208 170 220 214 242 248 279 247 304 296 340 356 223 175 167 235 186 109 33 8 350 350 338 330 324 315 317 324 341 337 354 357 355 351 348
258 254 254 245 222 196 193 176 164 157 163 173 148 128 148 218 221 248 215 211 194 231 187 224 206 226 100 44 276 322 258 241 234 152 220 119 50 34 6 352 352 352 338 332 336 332 341 344 344 347 1 357 3 355
255 253 247 227 201 191 183 169 168 165 145 126 179 174 198 173 224 222 210 208 215 204 169 206 174 188 151 248 214 235 244 223 247 204 88 66 39 20 2 352 348 351 349 346 341 344 346 344 345 347 4 2 5 5
247 241 228 205 189 184 171 169 166 150 125 179 170 189 222 185 231 210 240 298 221 197 153 209 156 199 131 139 101 278 292 283 267 186 75 67 15 357 357 349 344 347 348 350 345 343 347 342 342 347 354 5 5 23
231 224 201 191 182 174 166 168 160 160 190 189 201 220 216 244 249 260 275 262 293 61 143 220 183 129 133 144 253 318 255 289 17 54 49 23 346 7 352 345 339 343 346 350 342 343 341 342 343 346 346 2 19 12
198 171 175 177 171 165 159 152 141 104 151 239 235 247 212 240 258 260 214 182 144 231 238 272 211 169 124 126 201 286 332 27 78 64 24 329 354 353 336 340 339 338 340 344 342 341 347 345 340 345 351 354 5 15
169 135 168 166 161 155 150 127 122 191 217 228 233 228 215 238 245 261 200 142 137 217 221 195 199 124 129 162 116 26 7 97 168 165 129 16 335 336 354 0 348 343 339 347 347 349 1 348 346 354 354 352 351 22
141 159 161 154 143 134 103 145 180 186 227 234 249 218 215 252 274 219 90 95 219 241 319 10 42 172 218 152 142 151 153 175 103 94 78 17 342 330 22 19 350 335 341 1 351 353 359 2 358 354 345 346 347 359
160 157 157 151 142 113 141 174 212 223 220 241 222 211 224 258 295 166 122 122 337 347 7 213 330 271 94 82 113 128 119 176 99 95 102 193 344 9 37 18 345 1 11 10 3 7 354 4 14 354 350 345 343 353
154 148 149 144 140 120 138 161 186 248 214 205 205 221 231 232 210 160 159 177 187 201 188 212 18 52 123 103 100 102 98 168 298 108 68 82 31 29 45 20 7 17 17 14 13 19 4 6 4 357 354 351 348 343
133 139 138 141 91 264 231 159 177 220 229 201 198 212 216 210 197 171 187 193 204 236 133 80 92 84 103 129 103 102 85 54 78 56 36 47 24 28 28 21 26 23 23 17 11 9 13 16 7 355 358 359 352 343
130 141 112 85 141 210 205 200 190 193 222 252 190 196 200 198 192 191 158 196 195 186 46 123 116 136 124 122 105 76 110 112 112 114 221 188 42 28 27 26 28 24 23 21 12 8 7 9 14 7 4 357 360 357
120 112 100 144 172 190 230 176 191 212 221 196 178 199 196 189 193 143 190 171 106 135 216 119 137 160 110 112 119 119 124 124 95 66 44 44 64 36 30 39 42 29 13 19 14 8 5 4 11 15 10 4 3 1
110 131 161 180 195 181 179 186 205 216 204 176 183 205 172 154 149 195 195 162 134 191 176 136 148 125 144 160 158 140 141 105 115 83 34 19 35 46 32 43 52 31 13 13 14 9 9 4 7 9 14 13 6 5
132 174 197 191 210 182 183 183 200 205 181 179 187 163 111 136 159 205 222 154 157 191 154 178 166 164 170 151 113 118 232 109 98 94 53 48 19 35 37 40 67 41 14 14 11 7 9 6 9 6 7 18 12 4
154 175 186 198 182 182 193 170 184 186 184 181 175 135 118 162 198 215 187 142 161 184 163 189 183 167 161 140 133 125 116 84 105 97 63 59 48 35 32 29 24 28 10 15 7 4 6 2 7 6 5 7 17 12
167 196 191 203 202 210 151 152 154 191 190 181 147 145 168 153 204 53 112 127 150 168 178 197 175 157 138 114 109 120 99 73 74 100 92 78 66 51 44 39 38 9 4 15 10 10 5 360 4 3 2 4 10 6
226 192 169 181 126 113 104 118 171 203 202 164 149 180 174 167 105 321 113 165 153 163 175 151 128 122 108 115 126 140 123 112 122 128 124 105 85 57 42 37 29 11 7 15 14 12 7 2 4 3 2 4 5 360
174 96 114 133 109 195 206 205 199 160 208 173 159 95 112 88 167 172 149 142 153 153 134 116 105 110 115 113 101 70 31 3 193 149 171 114 57 42 26 20 16 13 13 8 18 35 15 4 18 10 5 8 6 358
143 149 137 175 175 166 122 92 96 82 79 92 99 106 109 117 116 133 131 148 144 134 130 132 134 144 146 139 115 94 74 57 51 49 54 66 47 28 17 15 12 9 7 5 4 8 10 8 14 13 13 12 10 3
142 174 147 149 82 86 103 103 98 78 81 110 117 115 111 112 88 58 66 111 132 139 140 144 160 156 148 143 140 156 114 94 80 71 64 53 48 35 18 11 13 13 10 10 12 16 10 13 19 15 13 12 10 8
159 194 162 120 109 44 52 50 67 92 93 108 113 124 135 107 75 66 4 352 169 154 143 151 134 112 102 95 91 75 90 92 79 64 50 49 42 21 13 13 16 16 17 16 18 21 17 17 20 20 15 13 10 8
128 99 103 108 119 124 135 101 95 87 92 91 81 61 81 85 97 46 24 18 93 135 122 118 113 103 99 97 95 88 89 91 81 62 59 64 63 55 40 28 20 17 35 37 27 29 23 20 21 20 18 16 13 11